2024/01/26 00:00:00,56.2,-1.8
2024/01/26 00:10:00,56.4,-2.1
2024/01/26 00:20:00,56.4,-1.7
2024/01/26 00:30:00,56.3,-1.6
2024/01/26 00:40:00,55.9,-1.2
2024/01/26 00:50:00,56.0,-1.5
2024/01/26 01:00:00,55.9,-1.7
2024/01/26 01:10:00,55.9,-1.8
2024/01/26 01:20:00,55.8,-1.6
2024/01/26 01:30:00,55.7,-1.9
2024/01/26 01:40:00,55.6,-1.7
2024/01/26 01:50:00,55.6,-1.7
2024/01/26 02:00:00,55.7,-1.9
2024/01/26 02:10:00,56.2,-1.4
2024/01/26 02:20:00,56.2,-1.4
2024/01/26 02:30:00,56.2,-1.7
2024/01/26 02:40:00,56.1,-1.4
2024/01/26 02:50:00,56.0,-1.8
2024/01/26 03:00:00,55.8,-1.5
2024/01/26 03:10:00,55.7,-1.4
2024/01/26 03:20:00,55.5,-2.0
2024/01/26 03:30:00,55.4,-2.1
2024/01/26 03:40:00,55.2,-1.8
2024/01/26 03:50:00,55.1,-2.2
2024/01/26 04:00:00,55.1,-1.9
2024/01/26 04:10:00,55.0,-1.7
2024/01/26 04:20:00,55.1,-1.6
2024/01/26 04:30:00,55.1,-2.1
2024/01/26 04:40:00,55.0,-2.1
2024/01/26 04:50:00,54.7,-2.1
2024/01/26 05:00:00,54.4,-2.1
2024/01/26 05:10:00,54.8,-2.3
2024/01/26 05:20:00,54.5,-2.2
2024/01/26 05:30:00,54.4,-2.2
2024/01/26 05:40:00,54.3,-2.2
2024/01/26 05:50:00,54.0,-2.4
2024/01/26 06:00:00,53.8,-2.4
2024/01/26 06:10:00,53.9,-2.5
2024/01/26 06:20:00,53.9,-2.5
2024/01/26 06:30:00,53.7,-2.4
2024/01/26 06:40:00,53.5,-2.8
2024/01/26 06:50:00,53.6,-2.7
2024/01/26 07:00:00,53.7,-2.4
2024/01/26 07:10:00,53.7,-2.6
2024/01/26 07:20:00,53.6,-2.6
2024/01/26 08:50:00,51.7, 3.5
2024/01/26 09:00:00,51.6, 2.4
2024/01/26 09:10:00,51.5, 4.5
2024/01/26 09:20:00,51.5, 3.6
2024/01/26 09:30:00,51.3, 4.0
2024/01/26 09:40:00,50.8, 4.3
2024/01/26 09:50:00,50.8, 3.9
2024/01/26 10:00:00,50.7, 3.3
2024/01/26 10:10:00,50.5, 3.0
2024/01/26 10:20:00,50.3, 2.3
2024/01/26 10:30:00,50.0, 5.3
2024/01/26 10:40:00,49.7, 7.3
2024/01/26 10:50:00,24.0,17.7
2024/01/26 11:00:00,24.2, 7.6
2024/01/26 11:10:00,48.2, 8.1
2024/01/26 11:20:00,48.2, 6.1
2024/01/26 11:30:00,48.1, 3.6
2024/01/26 11:40:00,47.3, 6.8
2024/01/26 11:50:00,46.8, 8.2
2024/01/26 12:00:00,46.5, 7.1
2024/01/26 12:10:00,46.0, 5.9
2024/01/26 12:20:00,45.3, 6.2
2024/01/26 12:30:00,45.0, 5.0
2024/01/26 12:40:00,44.8, 4.0
2024/01/26 12:50:00,44.5, 4.7
2024/01/26 13:00:00,44.8, 4.2
2024/01/26 13:10:00,45.0, 2.4
2024/01/26 13:20:00,45.0, 1.7
2024/01/26 13:30:00,44.8, 2.2
2024/01/26 13:40:00,44.0, 3.6
2024/01/26 13:50:00,42.9, 2.5
2024/01/26 14:00:00,42.5, 2.6
2024/01/26 14:10:00,42.2, 2.6
2024/01/26 14:20:00,41.8, 3.7
2024/01/26 14:30:00,41.4, 4.4
2024/01/26 14:40:00,41.6, 2.8
2024/01/26 14:50:00,41.8, 3.1
2024/01/26 15:00:00,41.8, 2.0
2024/01/26 15:10:00,41.6, 1.5
2024/01/26 15:20:00,41.6, 0.8
2024/01/26 15:30:00,42.1, 0.2
2024/01/26 15:40:00,42.2,-0.4
2024/01/26 15:50:00,42.3,-0.8
2024/01/26 16:00:00,42.1,-0.3
2024/01/26 16:10:00,42.1,-0.4
2024/01/26 16:20:00,41.9,-0.6
2024/01/26 16:30:00,41.8,-0.3
2024/01/26 16:40:00,41.4,-0.7
2024/01/26 16:50:00,41.5,-0.6
2024/01/26 17:00:00,41.3,-0.9
2024/01/26 17:10:00,41.1,-1.2
2024/01/26 17:20:00,40.7,-1.3
2024/01/26 17:30:00,40.6,-1.4
2024/01/26 17:40:00,40.5,-1.2
2024/01/26 17:50:00,40.4,-1.3
2024/01/26 18:00:00,39.9,-1.5
2024/01/26 18:10:00,39.8,-1.4
2024/01/26 18:20:00,39.7,-1.3
2024/01/26 18:30:00,39.2,-1.3
2024/01/26 18:40:00,38.8,-1.3
2024/01/26 18:50:00,38.8,-1.4
2024/01/26 19:00:00,38.8,-1.6
2024/01/26 19:10:00,38.8,-1.5
2024/01/26 19:20:00,38.6,-1.3
2024/01/26 19:30:00,38.7,-1.3
2024/01/26 19:40:00,38.4,-1.5
2024/01/26 19:50:00,38.1,-1.3
2024/01/26 20:00:00,38.0,-1.3
2024/01/26 20:10:00,38.0,-1.4
2024/01/26 20:20:00,38.1,-1.5
2024/01/26 20:30:00,37.9,-1.4
2024/01/26 20:40:00,37.6,-1.5
2024/01/26 20:50:00,37.4,-1.7
2024/01/26 21:00:00,37.5,-1.6
2024/01/26 21:10:00,37.6,-1.6
2024/01/26 21:20:00,37.8,-1.3
2024/01/26 21:30:00,37.6,-1.4
2024/01/26 21:40:00,37.4,-1.4
2024/01/26 21:50:00,37.6,-1.4
2024/01/26 22:00:00,37.3,-1.5
2024/01/26 22:10:00,37.2,-2.0
2024/01/26 22:20:00,37.1,-1.2
2024/01/26 22:30:00,37.1,-1.6
2024/01/26 22:40:00,37.2,-1.7
2024/01/26 22:50:00,37.1,-1.5
2024/01/26 23:00:00,37.1,-1.2
2024/01/26 23:10:00,37.5,-1.4
2024/01/26 23:20:00,37.7,-1.6
2024/01/26 23:30:00,37.6,-1.4
2024/01/26 23:40:00,37.6,-1.4
2024/01/26 23:50:00,37.6,-1.7
